San Luis Obispo, CA

5:12 PM PDT on April 27, 2017 (GMT -0700)
San Luis Obispo County-McChesney

Weather History for KSBP - May, 2014

Change the Weather History Date:

Thursday, May 15, 2014

  Actual Average Record
Temperature  
Mean Temperature 82 °F -  
Max Temperature 102 °F 71 °F 102 °F (2014)
Min Temperature 63 °F 47 °F 35 °F (1999)
Cooling Degree Days 18    
Growing Degree Days 32 (Base 50)    
Moisture  
Dew Point 39 °F    
Average Humidity 28    
Maximum Humidity 56    
Minimum Humidity 8    
Precipitation  
Precipitation 0.00 in - - ()
Sea Level Pressure  
Sea Level Pressure 30.00 in    
Wind  
Wind Speed 6 mph (NW)    
Max Wind Speed 22 mph    
Max Gust Speed 45 mph    
Visibility 10 miles    
Events      
Averages and records for this station are not official NWS values.
T = Trace of Precipitation, MM = Missing Value Source: NWS Daily Summary

Daily Weather History Graph

Daily Weather History Graph

Search for Another Location

Airport or City:

Trip Planner

Search our weather history database for the weather conditions in past years. The results will help you decide how hot, cold, wet, or windy it might be!

Date:

Astronomy

May. 15, 2014 Rise Set
Actual Time 5:58 AM PDT 7:59 PM PDT
Civil Twilight 5:30 AM PDT 8:28 PM PDT
Nautical Twilight 4:55 AM PDT 9:02 PM PDT
Astronomical Twilight 4:19 AM PDT 9:39 PM PDT
Moon 9:13 PM PDT (5/15) 6:49 AM PDT (5/15)
Length of Visible Light 14h 57m
Length of Day
14h 01m
Full, 99% of the Moon is Illuminated
May 15
Full
May 21
Last Quarter
May 28
New
Jun 5
First Quarter
Jun 12
Full

Hourly Weather History & Observations

Time (PDT) Temp. Dew Point Humidity Pressure Visibility Wind Dir Wind Speed Gust Speed Precip Events Conditions
12:56 AM 64.9 °F 36.0 °F 34% 30.03 in 10.0 mi ESE 3.5 mph 44.9 mph N/A   Clear
1:56 AM 63.0 °F 35.1 °F 35% 30.02 in 10.0 mi North - - N/A   Clear
2:56 AM 64.0 °F 35.1 °F 34% 30.01 in 10.0 mi North - - N/A   Clear
3:56 AM 68.0 °F 35.1 °F 30% 30.00 in 10.0 mi SE 6.9 mph - N/A   Clear
4:56 AM 68.0 °F 35.1 °F 30% 30.00 in 10.0 mi Variable 5.8 mph - N/A   Clear
5:56 AM 64.9 °F 37.0 °F 36% 30.01 in 10.0 mi Variable 3.5 mph - N/A   Clear
6:56 AM 64.0 °F 37.9 °F 38% 30.02 in 10.0 mi Calm Calm - N/A   Clear
7:56 AM 73.0 °F 37.9 °F 28% 30.02 in 10.0 mi Calm Calm - N/A   Clear
8:56 AM 84.9 °F 39.9 °F 20% 30.02 in 10.0 mi Calm Calm - N/A   Clear
9:56 AM 96.1 °F 35.1 °F 12% 30.01 in 10.0 mi NNW 3.5 mph - N/A   Clear
10:56 AM 100.0 °F 32.0 °F 9% 30.01 in 10.0 mi Variable 4.6 mph - N/A   Clear
11:56 AM 102.0 °F 30.0 °F 8% 30.00 in 10.0 mi NW 8.1 mph - N/A   Clear
12:56 PM 98.1 °F 39.0 °F 13% 29.98 in 10.0 mi NW 19.6 mph 25.3 mph N/A   Clear
1:56 PM 98.1 °F 39.0 °F 13% 29.97 in 10.0 mi NNW 21.9 mph - N/A   Clear
2:56 PM 97.0 °F 37.0 °F 12% 29.97 in 10.0 mi NNW 18.4 mph 26.5 mph N/A   Clear
3:56 PM 95.0 °F 37.0 °F 13% 29.96 in 10.0 mi NNW 19.6 mph 26.5 mph N/A   Clear
4:56 PM 93.0 °F 37.9 °F 15% 29.96 in 10.0 mi NNW 18.4 mph 24.2 mph N/A   Clear
5:56 PM 89.1 °F 39.0 °F 17% 29.96 in 10.0 mi NNW 17.3 mph 23.0 mph N/A   Clear
6:56 PM 84.9 °F 42.1 °F 22% 29.96 in 10.0 mi NNW 5.8 mph - N/A   Clear
7:56 PM 73.9 °F 46.9 °F 38% 29.98 in 10.0 mi WSW 3.5 mph - N/A   Clear
8:56 PM 66.9 °F 48.0 °F 51% 29.99 in 10.0 mi SW 3.5 mph - N/A   Clear
9:56 PM 64.9 °F 46.9 °F 52% 30.01 in 10.0 mi Calm Calm - N/A   Clear
10:56 PM 63.0 °F 46.9 °F 56% 30.01 in 10.0 mi NW 3.5 mph - N/A   Clear
11:56 PM 63.0 °F 46.9 °F 56% 30.02 in 10.0 mi Calm Calm - N/A   Clear